Location: STAR School
(35.3054°N, 111.2976°W)
Time: 05:29:58
(UTC-07:00)

Courier 1B Rocket - All Passes

Search period start: 21 May 2019 00:00
Search period end: 31 May 2019 00:00
Orbit: 920 x 1202 km, 28.2° (Epoch: 20 May)

Date Brightness Start Highest point End Pass type
(mag) Time Alt. Az. Time Alt. Az. Time Alt. Az.
21 May - 00:16:06 10° SW 00:17:28 11° SSW 00:18:49 10° SSW night (unlit)
21 May - 15:38:31 10° SSW 15:44:09 22° SSE 15:49:49 10° ESE daylight
21 May - 17:30:01 10° SW 17:37:15 42° SSE 17:44:22 10° E daylight
21 May - 19:23:10 10° WSW 19:30:39 51° S 19:37:48 10° ESE daylight
21 May - 21:17:03 10° W 21:23:54 37° SSW 21:30:23 10° SE visible
21 May - 23:12:21 10° WSW 23:16:41 17° SSW 23:20:51 10° S visible
22 May - 14:38:56 10° S 14:43:12 16° SSE 14:47:30 10° ESE daylight
22 May - 16:29:12 10° SW 16:36:08 36° SSE 16:43:03 10° E daylight
22 May - 18:21:58 10° WSW 18:29:28 50° S 18:36:46 10° ESE daylight
22 May - 20:15:36 10° W 20:22:51 44° SSW 20:29:45 10° ESE visible
22 May - 22:10:09 10° WSW 22:15:50 24° SSW 22:21:16 10° SSE visible
23 May - 15:28:40 10° SW 15:35:04 29° SSE 15:41:32 10° ESE daylight
23 May - 17:20:52 10° WSW 17:28:17 47° S 17:35:38 10° E daylight
23 May - 19:14:15 10° WSW 19:21:43 49° S 19:28:54 10° ESE daylight
23 May - 21:08:21 10° W 21:14:54 31° SSW 21:21:07 10° SE visible
23 May - 23:05:30 10° SW 23:07:34 11° SSW 23:09:36 10° SSW visible
24 May - 14:28:32 10° SSW 14:34:03 22° SSE 14:39:42 10° ESE daylight
24 May - 16:19:55 10° SW 16:27:06 42° SSE 16:34:22 10° E daylight
24 May - 18:13:00 10° WSW 18:20:31 51° S 18:27:55 10° ESE daylight
24 May - 20:06:49 10° W 20:13:51 38° SSW 20:20:38 10° SE visible
24 May - 22:02:04 10° WSW 22:06:44 17° SSW 22:11:14 10° S visible
25 May - 13:29:03 10° S 13:33:08 15° SSE 13:37:18 10° ESE daylight
25 May - 15:19:12 10° SW 15:25:59 36° SSE 15:32:57 10° E daylight
25 May - 17:11:52 10° WSW 17:19:19 51° S 17:26:48 10° ESE daylight
25 May - 19:05:24 10° W 19:12:45 44° SSW 19:19:55 10° ESE daylight
25 May - 20:59:53 10° WSW 21:05:49 24° SSW 21:11:32 10° SSE visible
26 May - 14:18:46 10° SW 14:24:57 29° SSE 14:31:21 10° ESE daylight
26 May - 16:10:51 10° WSW 16:18:08 48° S 16:25:34 10° E daylight
26 May - 18:04:07 10° WSW 18:11:34 49° S 18:18:58 10° ESE daylight
26 May - 19:58:08 10° W 20:04:49 31° SSW 20:11:19 10° SE visible
26 May - 21:55:03 10° SW 21:57:36 12° SSW 22:00:06 10° SSW visible
27 May - 13:18:44 10° SSW 13:24:00 21° SSE 13:29:29 10° ESE daylight
27 May - 15:10:01 10° SW 15:16:59 42° SSE 15:24:13 10° E daylight
27 May - 17:02:57 10° WSW 17:10:22 51° S 17:17:53 10° ESE daylight
27 May - 18:56:39 10° W 19:03:44 38° SSW 19:10:44 10° SE daylight
27 May - 20:51:49 10° WSW 20:56:42 18° SSW 21:01:28 10° S visible
28 May - 12:19:22 10° S 12:23:07 15° SSE 12:27:00 10° ESE daylight
28 May - 14:09:22 10° SW 14:15:54 35° SSE 14:22:45 10° E daylight
28 May - 16:01:54 10° WSW 16:09:10 51° S 16:16:41 10° ESE daylight
28 May - 17:55:19 10° W 18:02:36 44° S 18:09:54 10° ESE daylight
28 May - 19:49:43 10° WSW 19:55:44 24° SSW 20:01:39 10° SSE visible
29 May - 13:09:01 10° SSW 13:14:56 28° SSE 13:21:07 10° ESE daylight
29 May - 15:00:59 10° WSW 15:08:01 47° S 15:15:23 10° E daylight
29 May - 16:54:07 10° WSW 17:01:25 49° S 17:08:54 10° ESE daylight
29 May - 18:48:02 10° W 18:54:42 31° SSW 19:01:20 10° SE daylight
29 May - 20:44:46 10° SW 20:47:33 12° SSW 20:50:18 10° S visible
30 May - 12:09:04 10° SSW 12:14:02 21° SSE 12:19:13 10° ESE daylight
30 May - 14:00:14 10° SW 14:06:55 41° SSE 14:14:00 10° E daylight
30 May - 15:53:03 10° WSW 16:00:14 51° S 16:07:43 10° ESE daylight
30 May - 17:46:37 10° W 17:53:36 38° SSW 18:00:40 10° SE daylight
30 May - 19:41:41 10° WSW 19:46:37 18° SSW 19:51:30 10° SSE daylight
